FW0041 Weather Reports


Display with metric or nautical units.
time (UTC)temp
F
wind
direction
speed
MPH
gust
MPH
rain 1hr
in
rain 24hr
in
rain mn
in
humidity
%
barometer
mb
20260904110019 77 68 0.0 0.0 0.00 0.96 0.00 86 1013.7
20260904104606 78 68 0.0 0.0 0.00 0.96 0.00 86 1013.5
20260904103018 78 68 0.0 0.0 0.00 0.96 0.00 86 1013.3
20260904101551 78 68 0.0 0.0 0.00 0.96 0.00 86 1013.3
20260904100020 78 68 0.0 0.0 0.00 0.96 0.00 86 1013.3
20260904094558 78 68 0.0 0.0 0.00 0.96 0.00 87 1013.1
20260904093024 78 68 0.0 0.0 0.00 0.96 0.00 87 1013.1
20260904091554 78 68 0.0 0.0 0.00 0.96 0.00 87 1013.0
20260904090029 78 68 0.0 0.0 0.00 0.96 0.00 87 1013.0
20260904084557 78 68 0.0 0.0 0.00 0.96 0.00 87 1012.8
20260904084505 78 68 0.0 0.0 0.00 0.96 0.00 87 1012.9
20260904083020 78 68 0.0 1.0 0.00 0.96 0.00 87 1013.1
20260904081556 78 68 0.0 0.0 0.00 0.96 0.00 87 1013.1
20260904080016 78 68 0.0 0.0 0.00 0.96 0.00 87 1013.0
20260904074543 78 68 0.0 0.0 0.00 0.96 0.00 87 1013.0
20260904073018 78 68 0.0 0.0 0.00 0.96 0.00 87 1013.2
20260904071540 78 68 0.0 1.0 0.00 0.96 0.00 87 1013.3
20260904070100 78 68 0.0 0.0 0.00 0.96 0.00 87 1013.4
20260904070002 78 68 0.0 0.0 0.00 0.96 0.00 87 1013.4
20260904064529 78 68 0.0 0.0 0.00 0.96 0.00 87 1013.4
20260904063054 78 68 0.0 0.0 0.00 0.96 0.00 87 1013.2
20260904061532 78 68 0.0 0.0 0.00 0.96 0.00 87 1013.4
20260904060117 78 68 0.0 0.0 0.00 0.96 0.00 87 1013.4
20260904060003 78 68 0.0 0.0 0.00 0.96 0.00 87 1013.4
20260904054525 78 68 0.0 0.0 0.00 1.07 0.00 87 1013.4
20260904053144 78 68 0.0 0.0 0.00 1.07 0.00 87 1013.3
20260904051524 78 68 0.0 1.0 0.00 1.07 0.00 87 1013.3
20260904044606 78 68 0.0 0.0 0.00 1.07 1.07 87 1013.3
20260904044501 78 68 0.0 0.0 0.00 1.07 1.07 87 1013.3
20260904043013 78 68 0.0 0.0 0.00 1.07 1.07 87 1013.3
20260904041546 78 68 0.0 0.0 0.00 1.07 1.07 87 1013.3
20260904040017 77 68 0.0 0.0 0.00 1.07 1.07 87 1013.3
20260904034542 77 68 0.0 0.0 0.00 1.07 1.07 87 1013.3
20260904033016 77 68 0.0 0.0 0.00 1.07 1.07 88 1013.3
20260904031548 77 68 0.0 0.0 0.00 1.07 1.07 88 1013.4
20260904030024 77 68 0.0 0.0 0.00 1.07 1.07 88 1013.4
20260904024606 77 68 0.0 0.0 0.00 1.07 1.07 88 1013.3
20260904023022 77 68 0.0 0.0 0.00 1.07 1.07 88 1013.2
20260904021548 77 68 0.0 0.0 0.00 1.07 1.07 88 1012.8
20260904020022 77 68 0.0 0.0 0.00 1.07 1.07 88 1012.6
20260904014605 77 68 0.0 0.0 0.00 1.10 1.07 88 1012.5
20260904013034 77 68 0.0 0.0 0.00 1.10 1.07 88 1012.5
20260904011556 77 68 0.0 1.0 0.00 1.10 1.07 88 1012.3
20260904010022 77 68 0.0 0.0 0.00 1.10 1.07 88 1012.4
20260904004556 77 68 0.0 1.0 0.00 1.32 1.07 88 1012.3
20260904003022 77 68 0.0 0.0 0.00 1.32 1.07 88 1012.3
20260904001600 78 68 0.0 0.0 0.00 1.32 1.07 88 1012.5
20260904000014 78 68 0.0 0.0 0.00 1.32 1.07 88 1012.7
20260903234542 78 68 0.0 0.0 0.00 1.33 1.07 88 1012.6
20260903233011 78 68 0.0 0.0 0.00 1.33 1.07 88 1012.6
20260903231540 77 68 0.0 0.0 0.00 1.33 1.07 88 1012.7
20260903230112 77 68 0.0 0.0 0.00 1.33 1.07 88 1012.6
20260903230012 77 68 0.0 0.0 0.00 1.33 1.07 88 1012.7
20260903224536 77 68 0.0 2.0 0.00 1.38 1.07 88 1012.6
20260903223130 77 68 0.0 0.0 0.00 1.38 1.07 88 1012.8
20260903221516 77 68 0.0 1.0 0.00 1.38 1.07 88 1012.8
20260903220042 77 68 0.0 0.0 0.00 1.38 1.07 88 1013.2
20260903214509 77 68 0.0 1.0 0.01 1.39 1.07 88 1013.3
20260903213059 77 68 0.0 0.0 0.02 1.39 1.07 88 1013.3
20260903211512 77 68 0.0 0.0 0.04 1.39 1.07 88 1013.6
20260903210104 76 61 0.0 0.0 0.06 1.39 1.07 88 1013.9
20260903204504 76 61 0.0 0.0 0.06 1.39 1.06 89 1014.1
20260903203037 76 62 0.0 0.0 0.06 1.38 1.05 89 1014.2
20260903201508 76 62 0.0 0.0 0.06 1.36 1.03 89 1014.4
20260903200040 76 62 0.0 0.0 0.05 1.34 1.01 89 1014.4
20260903194504 75 62 0.0 0.0 0.04 1.33 1.00 89 1014.1
20260903193031 75 62 0.0 0.0 0.04 1.32 0.99 89 1014.2
20260903191555 75 62 0.0 0.0 0.02 1.30 0.97 89 1014.3
20260903190024 75 62 0.0 0.0 0.08 1.29 0.96 89 1014.7
20260903184555 75 62 0.0 0.0 0.69 1.29 0.96 89 1015.2
20260903183015 75 62 0.0 3.0 0.83 1.28 0.95 89 1015.1
20260903181539 76 63 1.0 3.0 0.83 1.28 0.95 89 1015.0
20260903180007 76 72 1.0 6.0 0.76 1.21 0.89 89 1015.5
20260903174529 79 124 1.0 4.0 0.15 0.60 0.27 89 1015.2
20260903173049 81 5 0.0 6.0 0.00 0.45 0.12 88 1015.2
20260903171526 81 315 0.0 1.0 0.00 0.45 0.12 88 1015.0
20260903170059 81 315 0.0 0.0 0.00 0.45 0.12 87 1015.1
20260903164508 81 315 0.0 0.0 0.00 0.45 0.12 88 1015.1
20260903163043 81 315 0.0 0.0 0.00 0.45 0.12 87 1015.0
20260903161507 81 315 0.0 0.0 0.00 0.45 0.12 87 1015.0
20260903160038 81 315 0.0 1.0 0.00 0.45 0.12 88 1014.9
20260903154558 81 315 0.0 0.0 0.00 0.45 0.12 87 1014.9
20260903153031 81 315 0.0 1.0 0.00 0.45 0.12 87 1015.0
20260903151600 80 315 0.0 0.0 0.00 0.45 0.12 87 1015.0
20260903151501 80 315 0.0 0.0 0.00 0.45 0.12 87 1015.0
20260903150052 80 315 0.0 1.0 0.00 0.45 0.12 87 1015.2
20260903144512 80 315 0.0 0.0 0.00 0.45 0.12 88 1015.3
20260903143035 80 315 0.0 0.0 0.00 0.45 0.12 88 1015.5
20260903141511 80 315 0.0 0.0 0.00 0.45 0.12 88 1015.5
20260903140030 79 315 0.0 0.0 0.00 0.45 0.12 88 1015.3
20260903134553 79 315 0.0 0.0 0.00 0.45 0.12 88 1015.1
20260903133015 79 223 0.0 0.0 0.00 0.45 0.12 88 1015.1
20260903131540 79 180 0.0 0.0 0.00 0.45 0.12 88 1015.1
20260903130100 78 180 0.0 0.0 0.00 0.45 0.12 88 1015.0
20260903130002 78 180 0.0 0.0 0.00 0.45 0.12 88 1014.9
20260903124530 78 180 0.0 0.0 0.00 0.45 0.12 88 1014.9
20260903123049 78 180 0.0 0.0 0.00 0.45 0.12 88 1014.6
20260903121542 78 180 0.0 0.0 0.00 0.45 0.12 88 1014.3
20260903120044 78 180 0.0 0.0 0.01 0.45 0.12 88 1014.0
20260903114513 78 180 0.0 0.0 0.01 0.46 0.12 88 1014.0
20260903113048 78 180 0.0 0.0 0.01 0.46 0.12 88 1014.0
20260903111512 78 180 0.0 0.0 0.01 0.46 0.12 88 1013.9